Volver al catálogo

STARLINK-5998

ActivoComunicacionesVLEO
NORAD 56468·PAYLOAD·🇺🇸 United States

Lanzado May 10, 2023 desde Vandenberg Space Force Base

Loading…

Próximos Pases (próximas 24 horas)

TLE

ActualizadoSource: CelesTrak SupGP

Época: Sep 14, 2026, 22:07 UTC

1 56468C 23064W   26257.92201389 -.00031155  00000+0 -26109-2 0  2573
2 56468  70.0027  27.1508 0003152 273.2361 163.0705 14.98346127    13

Sigue STARLINK-5998 en tiempo real con AllMySat

Download on the App Store